{"data":{"norad_id":63883,"epoch":"2026-09-20T16:00:01.999584Z","epoch_age_seconds":132572,"freshness":"FRESH","line1":"1 63883U 25094V   26263.66668981 -.00043109  00000+0 -14642-2 0  9994","line2":"2 63883  69.9998 100.5617 0003285 266.5164 188.7460 15.30444290  5784","mean_motion":15.3044429,"eccentricity":0.0003285,"inclination_deg":69.9998,"raan_deg":100.5617,"arg_perigee_deg":266.5164,"mean_anomaly_deg":188.746,"bstar":-0.0014642,"rev_number":578,"period_min":94.090324581498,"perigee_km":472.23467396111,"apogee_km":476.73684711478,"semimajor_km":6852.6227605379,"source":"CELESTRAK","updated_at":"2026-09-21T09:00:35.141000Z"}}